Location: Juzet
(42.9779°N, 0.7597°E)
Time: 17:21:42
(UTC+00:00)

Abrixas rocket - Pass Details

Date: 14 July 2020
Orbit: 338 x 346 km, 48.4° (Epoch: 12 August)

Event Time Altitude Azimuth Distance (km) Brightness Sun altitude
Exits shadow 01:34:20 23° 334° (NNW) 787 4.0 -22.1°
Maximum altitude 01:35:14 27° 7° (N) 687 4.0 -22.0°
Drops below altitude 10° 01:37:45 10° 69° (ENE) 1,280 5.3 -21.8°
Sets 01:39:55 0° 82° (E) 2,117 6.3 -21.6°
